Hourly Data Report for May 17, 2019

MIRAMICHI RCS
NEW BRUNSWICK
Current Station Operator: ECCC - MSC

47°00'34.000" N
65°27'54.000" W
33.00 m
8100989
71744
ACQ

Download Data

Hourly Data (May 2019)
Hourly Data Report for May 17, 2019
TIME
LST
Temp Definition
°C
Dew Point Definition
°C
Rel Hum Definition
%
Precip. Amount Definition
mm

Wind Dir Definition
10's deg

Wind Spd Definition
km/h
Visibility Definition
km
Stn Press Definition
kPa
Hmdx Definition


Wind Chill Definition


Weather Definition


00:00 2.9 2.3 96 0.0 13 4   100.80     LegendNANA
01:00 3.6 3.0 96 0.0 15 3   100.80     LegendNANA
02:00 3.5 2.8 96 0.0 24 2   100.76     LegendNANA
03:00 3.2 2.7 97 0.0 29 1   100.75     LegendNANA
04:00 3.3 2.8 97 0.0   0   100.72     LegendNANA
05:00 3.6 3.0 96 0.0 20 4   100.73     LegendNANA
06:00 3.9 3.3 96 0.0 28 2   100.76     LegendNANA
07:00 4.5 3.2 91 0.0 24 3   100.80     LegendNANA
08:00 5.2 3.3 87 0.0 22 4   100.83     LegendNANA
09:00 5.6 3.7 88 0.0 20 6   100.87     LegendNANA
10:00 6.6 3.3 79 0.0 20 4   100.87     LegendNANA
11:00 7.3 3.2 75 0.0 22 2   100.86     LegendNANA
12:00 8.4 2.8 68 0.0 13 5   100.78     LegendNANA
13:00 8.9 2.5 64 0.0 17 5   100.75     LegendNANA
14:00 9.4 3.2 65 0.0 14 4   100.72     LegendNANA
15:00 9.2 4.2 71 0.0 11 8   100.70     LegendNANA
16:00 9.5 3.9 68 0.0 13 10   100.67     LegendNANA
17:00 9.7 4.4 70 0.0 10 13   100.66     LegendNANA
18:00 9.6 4.0 68 0.0 11 11   100.66     LegendNANA
19:00 9.0 4.1 71 0.0 11 12   100.66     LegendNANA
20:00 7.8 3.5 74 0.0 12 15   100.70     LegendNANA
21:00 6.9 3.9 81 0.0 9 13   100.71     LegendNANA
22:00 6.0 4.0 87 0.0 8 11   100.67     LegendNANA
23:00 5.6 4.4 92 0.0 7 11   100.62     LegendNANA

Notes on Data Quality.

Legend

  • E = Estimated
  • M = Missing
  • NA = Not Available*
  • [empty] = Indicates an unobserved value
Date modified: